Total_Precipitation_Accumulation
0.61 0.48 0.25 0.14 0.11 0.07 0.05 0.01 0.01 0.00 0.00 0.01 0.00 0.00 0.00 0.00 0.00 0.00 0.00 0.00 0.00 0.00 0.00 0.00 0.00 0.00 0.00 0.00 0.00 0.00 0.00 0.00 0.00 0.00 0.00 0.00 0.00 0.00 0.00 0.00 0.00 0.00 0.00 0.00
0.81 0.65 0.43 0.24 0.23 0.08 0.02 0.02 0.01 0.01 0.02 0.08 0.01 0.00 0.00 0.00 0.00 0.00 0.00 0.00 0.00 0.00 0.00 0.00 0.00 0.00 0.00 0.00 0.00 0.00 0.00 0.00 0.00 0.00 0.00 0.00 0.00 0.00 0.00 0.00 0.00 0.00 0.00 0.00
0.74 0.64 0.71 0.56 0.31 0.09 0.02 0.04 0.03 0.09 0.07 0.02 0.00 0.00 0.00 0.00 0.00 0.00 0.00 0.00 0.00 0.00 0.00 0.00 0.00 0.00 0.00 0.00 0.00 0.00 0.00 0.00 0.00 0.00 0.00 0.00 0.00 0.00 0.00 0.00 0.00 0.00 0.00 0.00
1.34 1.08 0.89 0.87 0.57 0.16 0.07 0.10 0.02 0.02 0.08 0.02 0.00 0.00 0.00 0.00 0.00 0.01 0.01 0.03 0.01 0.00 0.00 0.00 0.00 0.00 0.00 0.00 0.00 0.00 0.00 0.00 0.00 0.00 0.00 0.00 0.00 0.00 0.00 0.00 0.00 0.00 0.00 0.00
1.86 1.82 1.60 1.48 1.34 0.86 0.57 0.29 0.03 0.00 0.00 0.00 0.00 0.00 0.00 0.00 0.00 0.02 0.06 0.05 0.01 0.02 0.08 0.04 0.02 0.04 0.04 0.02 0.00 0.00 0.00 0.01 0.00 0.00 0.00 0.00 0.00 0.00 0.00 0.00 0.00 0.00 0.00 0.00
1.62 2.19 2.36 2.40 2.46 2.41 2.34 0.74 0.09 0.01 0.02 0.00 0.00 0.00 0.00 0.00 0.00 0.02 0.04 0.05 0.09 0.28 0.15 0.04 0.08 0.13 0.09 0.05 0.01 0.01 0.03 0.03 0.03 0.02 0.00 0.04 0.13 0.00 0.00 0.00 0.00 0.00 0.00 0.00
0.75 1.24 1.88 2.34 2.92 3.72 3.12 1.33 0.47 0.30 0.16 0.06 0.00 0.00 0.00 0.00 0.00 0.01 0.02 0.07 0.23 0.11 0.01 0.10 0.16 0.16 0.15 0.16 0.14 0.04 0.07 0.04 0.11 0.13 0.19 0.41 0.06 0.00 0.00 0.00 0.00 0.00 0.00 0.00
0.54 0.80 1.21 1.97 2.91 3.51 3.41 2.85 1.52 1.03 0.53 0.18 0.05 0.00 0.00 0.01 0.01 0.04 0.05 0.04 0.04 0.07 0.25 0.51 0.51 0.35 0.40 0.24 0.10 0.07 0.07 0.13 0.33 0.33 0.24 0.10 0.01 0.00 0.00 0.00 0.00 0.00 0.00 0.00
0.16 0.25 0.46 1.08 2.12 3.26 3.66 2.81 1.84 1.47 1.11 0.64 0.10 0.04 0.03 0.03 0.05 0.09 0.03 0.00 0.02 0.27 0.54 0.78 0.70 0.25 0.07 0.00 0.01 0.01 0.04 0.14 0.53 0.61 0.44 0.19 0.01 0.00 0.00 0.00 0.00 0.00 0.00 0.00
0.17 0.16 0.17 0.30 0.82 2.00 3.72 4.02 2.28 1.94 1.81 0.57 0.12 0.38 0.25 0.03 0.04 0.21 0.05 0.01 0.07 0.43 0.99 0.97 0.49 0.19 0.01 0.01 0.00 0.03 0.17 0.34 0.77 0.48 0.44 0.11 0.00 0.00 0.00 0.00 0.00 0.00 0.00 0.00
0.17 0.19 0.18 0.21 0.32 0.78 1.78 3.01 2.45 2.13 1.69 0.67 0.24 0.27 0.24 0.09 0.09 0.37 0.18 0.35 0.61 0.83 1.12 0.96 0.48 0.31 0.07 0.02 0.00 0.00 0.04 0.14 0.22 0.18 0.49 0.55 0.03 0.00 0.00 0.00 0.00 0.00 0.00 0.00
0.21 0.21 0.27 0.26 0.22 0.28 0.74 1.20 1.51 1.60 1.75 1.26 0.59 0.44 0.40 0.29 0.20 0.30 0.58 0.45 0.13 0.18 0.39 0.47 0.26 0.38 0.25 0.09 0.04 0.00 0.00 0.00 0.00 0.01 0.08 0.03 0.00 0.00 0.01 0.01 0.00 0.00 0.00 0.00
0.47 0.27 0.29 0.23 0.18 0.17 0.22 0.56 0.72 1.08 1.64 1.31 0.86 0.63 0.51 0.42 0.44 0.44 0.99 1.04 0.63 0.60 0.56 0.73 0.82 0.91 0.60 0.42 0.27 0.09 0.04 0.03 0.08 0.12 0.10 0.02 0.02 0.02 0.03 0.02 0.02 0.02 0.02 0.01
1.18 0.60 0.50 0.28 0.11 0.12 0.14 0.17 0.38 0.43 0.57 0.54 0.46 0.32 0.24 0.20 0.31 0.47 0.58 0.47 0.33 0.47 0.67 1.26 1.30 0.81 0.43 0.30 0.18 0.23 0.25 0.30 0.31 0.42 0.45 0.40 0.38 0.32 0.32 0.30 0.29 0.27 0.23 0.20
0.61 0.41 0.21 0.07 0.04 0.07 0.05 0.02 0.07 0.08 0.16 0.38 0.24 0.12 0.06 0.08 0.14 0.27 0.46 0.55 0.56 0.58 0.70 0.91 0.93 0.60 0.44 0.39 0.34 0.44 0.26 0.31 0.36 0.39 0.21 0.29 0.29 0.24 0.25 0.29 0.30 0.28 0.25 0.17
0.08 0.07 0.07 0.07 0.10 0.05 0.00 0.00 0.00 0.02 0.08 0.26 0.13 0.06 0.01 0.01 0.02 0.06 0.13 0.22 0.29 0.40 0.59 0.57 0.46 0.30 0.27 0.56 0.44 0.19 0.10 0.15 0.23 0.25 0.24 0.26 0.24 0.20 0.18 0.16 0.15 0.14 0.13 0.12
0.05 0.04 0.07 0.14 0.17 0.02 0.01 0.05 0.04 0.03 0.08 0.21 0.13 0.04 0.00 0.00 0.00 0.00 0.00 0.02 0.08 0.17 0.30 0.38 0.44 0.39 0.49 0.76 0.49 0.22 0.12 0.12 0.14 0.18 0.20 0.26 0.24 0.21 0.18 0.16 0.15 0.14 0.12 0.10
0.12 0.15 0.20 0.19 0.16 0.10 0.08 0.05 0.10 0.10 0.19 0.25 0.25 0.07 0.00 0.00 0.00 0.00 0.00 0.00 0.04 0.14 0.19 0.16 0.12 0.14 0.23 0.43 0.33 0.22 0.18 0.14 0.13 0.10 0.12 0.14 0.13 0.14 0.13 0.12 0.11 0.10 0.09 0.08
0.10 0.17 0.13 0.04 0.02 0.11 0.25 0.16 0.01 0.04 0.20 0.28 0.18 0.06 0.02 0.00 0.00 0.00 0.00 0.01 0.02 0.05 0.14 0.15 0.15 0.19 0.26 0.20 0.10 0.06 0.05 0.05 0.04 0.03 0.04 0.04 0.04 0.05 0.05 0.05 0.04 0.04 0.05 0.05
0.02 0.01 0.00 0.01 0.06 0.17 0.24 0.12 0.05 0.04 0.05 0.06 0.07 0.04 0.02 0.00 0.00 0.00 0.01 0.02 0.02 0.04 0.06 0.09 0.15 0.19 0.15 0.09 0.07 0.06 0.06 0.06 0.06 0.05 0.04 0.04 0.04 0.03 0.03 0.04 0.04 0.04 0.03 0.03
0.00 0.00 0.02 0.05 0.01 0.00 0.02 0.06 0.04 0.05 0.04 0.03 0.03 0.01 0.00 0.00 0.02 0.02 0.04 0.08 0.06 0.09 0.06 0.06 0.09 0.10 0.04 0.01 0.00 0.01 0.01 0.01 0.01 0.02 0.02 0.02 0.02 0.02 0.02 0.02 0.02 0.03 0.03 0.02
0.00 0.00 0.01 0.00 0.00 0.02 0.05 0.05 0.04 0.02 0.04 0.02 0.01 0.00 0.01 0.01 0.03 0.06 0.06 0.09 0.11 0.12 0.09 0.09 0.10 0.07 0.00 0.00 0.00 0.00 0.01 0.02 0.02 0.02 0.03 0.03 0.03 0.03 0.03 0.03 0.02 0.02 0.02 0.02
0.00 0.00 0.00 0.00 0.00 0.00 0.01 0.01 0.01 0.01 0.01 0.01 0.01 0.01 0.01 0.02 0.04 0.06 0.09 0.10 0.10 0.08 0.10 0.10 0.06 0.01 0.00 0.00 0.00 0.00 0.01 0.01 0.01 0.01 0.00 0.01 0.01 0.01 0.02 0.02 0.02 0.02 0.02 0.02
0.00 0.00 0.00 0.00 0.00 0.00 0.00 0.00 0.00 0.00 0.00 0.00 0.00 0.00 0.01 0.02 0.04 0.06 0.10 0.10 0.08 0.10 0.08 0.05 0.03 0.01 0.00 0.00 0.00 0.01 0.00 0.00 0.00 0.00 0.00 0.00 0.00 0.00 0.00 0.00 0.00 0.01 0.02 0.02
0.00 0.00 0.00 0.00 0.00 0.00 0.00 0.00 0.00 0.00 0.00 0.00 0.00 0.01 0.02 0.03 0.06 0.09 0.08 0.08 0.08 0.07 0.05 0.03 0.01 0.00 0.00 0.00 0.00 0.00 0.00 0.00 0.00 0.00 0.00 0.00 0.00 0.00 0.00 0.00 0.00 0.00 0.00 0.00
0.00 0.00 0.00 0.00 0.00 0.00 0.00 0.00 0.00 0.00 0.00 0.01 0.02 0.02 0.03 0.05 0.05 0.05 0.05 0.05 0.04 0.04 0.02 0.01 0.01 0.01 0.00 0.00 0.00 0.00 0.00 0.00 0.00 0.00 0.00 0.00 0.00 0.00 0.00 0.00 0.00 0.00 0.00 0.00
0.00 0.00 0.00 0.00 0.00 0.00 0.00 0.00 0.00 0.00 0.00 0.00 0.00 0.00 0.01 0.01 0.01 0.02 0.02 0.03 0.03 0.02 0.00 0.00 0.00 0.01 0.00 0.00 0.00 0.00 0.00 0.00 0.00 0.00 0.00 0.00 0.00 0.00 0.00 0.00 0.00 0.00 0.00 0.00